User: anonymous   Login
Location: Columbus
(29.5618°N, 96.6770°W)
Time: 20:22:16
(UTC-05:00)
Language:

Cosmos 2056 Rocket - Orbit

View from above orbital plane
View from above orbital plane
View from above satellite
View from above satellite

Ground track
Ground track

The orbit data is extracted from the following two-line orbital elements,

1 20433U 90004B   15125.17370146  .00000093  00000-0  40883-4 0  9997
2 20433 074.0360 336.9428 0041836 294.2548 180.9763 14.35829763324107
Epoch (UTC): 05 May 2015 04:10:07
Eccentricity: 0.0041836
inclination: 74.0360°
perigee height: 742 km
apogee height: 802 km
right ascension of ascending node: 336.9428°
argument of perigee: 294.2548°
revolutions per day: 14.35829763
mean anomaly at epoch: 180.9763°
orbit number at epoch: 32410

The dashed part of the orbit path shows where the satellite is in the earth's shadow,  

DLR